Regional Weather Roundup
Issued by NWS

Home | Current Version | Previous Version | Text Only | Print | Product List | Glossary On
Versions: 1 2 3 4 5 6 7 8 9 10 11 12 13 14 15 16 17 18 19 20 21 22 23 24 25 26 27 28 29 30 31 32 33 34 35 36 37 38 39 40 41 42 43 44 45 46 47 48 49 50
000
ASUS45 KPSR 272110
RWRAZ

ARIZONA REGIONAL HOURLY WEATHER ROUNDUP
NATIONAL WEATHER SERVICE TUCSON AZ
200 PM MST SAT MAY 27 2017

NOTE: FAIR INDICATES FEW OR NO CLOUDS BELOW 12,000 FEET WITH NO
SIGNIFICANT WEATHER AND/OR OBSTRUCTIONS TO VISIBILITY.

AZZ001>003-036-272200-
NORTHWEST ARIZONA

CITY           SKY/WX    TMP DP  RH WIND       PRES   REMARKS
BULLHEAD CITY  SUNNY     93  37  14 SW12      29.88F
KINGMAN        SUNNY     85  32  15 CALM      30.03F
$$

AZZ004>008-015-016-018-272200-
NORTH CENTRAL ARIZONA

CITY           SKY/WX    TMP DP  RH WIND       PRES   REMARKS
GRAND CANYON   SUNNY     72  24  16 MISG      30.19F
WILLIAMS       CLEAR     72  21  15 NW15      30.21S
PRESCOTT       SUNNY     78  23  13 VRB5      30.11F
FLAGSTAFF      MOSUNNY   71  21  15 SW20G25   30.19F
PAYSON         CLEAR     77  23  13 VRB7G15   30.15F
PAGE           MOSUNNY   81  28  14 CALM      30.04F
$$

AZZ009>014-017-272200-
NORTHEAST ARIZONA

CITY           SKY/WX    TMP DP  RH WIND       PRES   REMARKS
WINSLOW        SUNNY     82  20  10 N9        30.07F
SAINT JOHNS    SUNNY     79  18  10 NW9G22    30.09F
WINDOW ROCK    MOSUNNY   72  21  14 VRB7G17   30.15F
SHOW LOW       SUNNY     72  16  12 S9G16     30.18S
$$

AZZ023-272200-
GREATER PHOENIX AREA

CITY           SKY/WX    TMP DP  RH WIND       PRES   REMARKS
PHOENIX        MOSUNNY   92  25   9 VRB5      29.89F
BUCKEYE        CLEAR     91  32  12 SW8       29.91F
GLENDALE       MOSUNNY   93  30  10 S7        29.92F
LUKE AFB       SUNNY     92  31  11 SW6       29.89F
DEER VALLEY    SUNNY     92  25   9 W9        29.92F
SCOTTSDALE     SUNNY     92  23   8 VRB3      29.94F
MESA-FALCON    SUNNY     93  28  10 W10       29.92F
MESA-GATEWAY   SUNNY     91  27   9 W8        29.93F
CHANDLER       SUNNY     91  25   9 S6        29.91F
$$

AZZ027-028-272200-
SOUTHWEST MARICOPA COUNTY AND PINAL COUNTY

CITY           SKY/WX    TMP DP  RH WIND       PRES   REMARKS
CASA GRANDE    SUNNY     92  29  10 VRB7      29.93F
$$

AZZ503-504-507>509-272200-
SOUTHEAST ARIZONA

CITY           SKY/WX    TMP DP  RH WIND       PRES   REMARKS
TUCSON         SUNNY     92  16   6 VRB6      29.98F
DAVIS-MONTHAN  SUNNY     91  16   6 N8        29.97F
RYAN FIELD     CLEAR     91  10   5 NW12G21   29.96F
NOGALES        SUNNY     90  13   6 SW16      30.04F
SIERRA VISTA   SUNNY     87  10   5 W12G17    30.09F
DOUGLAS        SUNNY     90  11   5 W18G29    30.03F
SAFFORD        SUNNY     91  14   6 VRB7      29.96F
$$

AZZ020-021-025-026-031-272200-
SOUTHWEST ARIZONA

CITY           SKY/WX    TMP DP  RH WIND       PRES   REMARKS
YUMA           SUNNY     92  41  17 VRB5      29.88F
$$

CAZ031-033-041-043-047-048-061-272200-
SOUTHERN CALIFORNIA

CITY           SKY/WX    TMP DP  RH WIND       PRES   REMARKS
DOWNTOWN L.A.  MOSUNNY   70  52  52 W7        30.04F
L.A. AIRPORT   MOSUNNY   67  54  63 W15       30.06F
SAN DIEGO      MOSUNNY   68  53  58 NW15      30.07F
BURBANK        SUNNY     70  49  47 SW9       30.03F
ONTARIO        SUNNY     75  47  36 SW5       30.02F
RIVERSIDE      SUNNY     75  49  39 CALM      30.02F
PALM SPRINGS   SUNNY     92  31  11 VRB6      29.91F
EL CENTRO NAS  SUNNY     89  37  16 E5        29.89F
IMPERIAL       SUNNY     91  43  18 VRB5      29.87F
BLYTHE         SUNNY     92  36  14 VRB6      29.89F
NEEDLES        SUNNY     96  33  11 VRB7      29.89F
$$

NVZ020-UTZ003-272200-
SOUTHERN NEVADA-UTAH

CITY           SKY/WX    TMP DP  RH WIND       PRES   REMARKS
LAS VEGAS      MOSUNNY   88  24  10 CALM      29.96F
SALT LAKE CITY MOSUNNY   68  36  30 NW14      30.22S
$$

NMZ009-TXZ055-272200-
NEW MEXICO-WEST TEXAS

CITY           SKY/WX    TMP DP  RH WIND       PRES   REMARKS
ALBUQUERQUE    MOSUNNY   82   9   6 W17G24    30.04F
EL PASO        MOSUNNY   92  24   8 SW17G33   29.98F
$$


........................KEY........................
SKY/WX - SKY CONDITION/WEATHER
TMP    - TEMPERATURE IN FAHRENHEIT
DP     - DEWPOINT IN FAHRENHEIT
RH     - RELATIVE HUMIDITY IN PERCENT
WIND   - DIRECTION AND SPEED IN MILES PER HOUR (MPH)
VRB    - VARIABLE WIND DIRECTION
PRES   - MEAN SEA LEVEL PRESSURE IN INCHES OF MERCURY
         F - FALLING PRESSURE   R - RISING PRESSURE
         S - STEADY PRESSURE
VSB    - VISIBILITY IN MILES
HX     - HEAT INDEX IN FAHRENHEIT
WCI    - WIND CHILL INDEX IN FAHRENHEIT
TC     - TEMPERATURE IN CELSIUS WHICH IS ALSO KNOWN AS
         TEMPERATURE IN CENTIGRADE
AFB    - AIR FORCE BASE
         LUKE AFB IS LUKE AIR FORCE BASE
         DAVIS-MONTHAN IS DAVIS-MONTHAN AIR FORCE BASE
NAS    - NAVAL AIR STATION
         EL CENTRO NAS IS EL CENTRO NAVAL AIR STATION
N/A    - NOT AVAILABLE




USA.gov is the U.S. government's official web portal to all federal, state and local government web resources and services.